Regional Weather Roundup
Issued by NWS Northern Indiana

Home | Current Version | Previous Version | Graphics & Text | Print | Product List | Glossary On
Versions: 1 2 3 4 5 6 7 8 9 10 11 12 13 14 15 16 17 18 19 20 21 22 23 24 25 26 27 28 29 30 31 32 33 34 35 36 37 38 39 40 41 42 43 44 45 46 47 48 49 50
000
ASUS43 KIWX 221910
RWRIWX

KIWX WEATHER ROUNDUP
NATIONAL WEATHER SERVICE NORTHERN INDIANA
300 PM EDT SAT APR 22 2017

NOTE: "FAIR" INDICATES FEW OR NO CLOUDS BELOW 12,000 FEET WITH NO
SIGNIFICANT WEATHER AND/OR OBSTRUCTIONS TO VISIBILITY.

* THESE STATIONS ARE NOT UNDER NWS QUALITY CONTROL. THEY ALSO MAY NOT
  REPORT WEATHER SUCH AS PRECIPITATION OR FOG.

INZ001>027-222000-
NORTHERN INDIANA

CITY           SKY/WX    TMP DP  RH WIND       PRES   REMARKS
GARY*          PTSUNNY   50  34  53 NE12G23   30.20F
VALPARAISO     CLOUDY    56  36  47 N13       30.16F
MICHIGAN CITY* MOSUNNY   52  36  54 N10       30.19S
LAPORTE*       CLOUDY    56  37  49 N13       30.16S
KNOX*          MOSUNNY   59   0   9 E10G17    30.14F
SOUTH BEND     MOSUNNY   60  33  36 NE9       30.16F
ELKHART*       SUNNY     57  27  30 NE13      30.15F
GOSHEN         SUNNY     59  31  34 NE13      30.14F
MONTICELLO*    CLOUDY    58  33  38 NE14      30.12F
LOGANSPORT*    MOSUNNY   57  34  41 NE10G18   30.13F
ROCHESTER*     CLOUDY    61  32  33 NE13G20   30.13F
WARSAW*        SUNNY     59  32  36 NE12G21   30.13F
ANGOLA*        SUNNY     57  46  67 N9        30.13F
FORT WAYNE     PTSUNNY   55  35  47 NE15      30.14F
HUNTINGTON*    MOSUNNY   54  35  47 E12       30.13F
PERU/GRISSOM   MOSUNNY   57  35  43 E16       30.11F

$$
INZ028>050-222000-
CENTRAL INDIANA

CITY           SKY/WX    TMP DP  RH WIND       PRES   REMARKS
LAFAYETTE      PTSUNNY   58  36  43 E23G29    30.11F
KOKOMO*        CLOUDY    54  34  46 E20       30.13S
MUNCIE*        PTSUNNY   53  36  52 NE16      30.12R
INDIANAPOLIS   CLOUDY    54  37  52 NE12      30.09S

$$
MIZ043>046-050>051-056>058-064>065-071>073-077>080-222000-
SOUTHWEST LOWER MICHIGAN

CITY           SKY/WX    TMP DP  RH WIND       PRES   REMARKS
BATTLE CREEK   SUNNY     60  29  30 N16       30.15F
BENTON HARBOR  MOSUNNY   52  34  50 N8        30.17F
COLDWATER*     SUNNY     58  30  34 NE6G20    30.14F
HILLSDALE*     CLOUDY    55  32  41 NE9       30.13F
HOLLAND        SUNNY     58  36  43 W12       30.17F
GRAND RAPIDS   MOSUNNY   62  30  29 NE12G17   30.15F
KALAMAZOO      SUNNY     61  27  27 NE10G17   30.16F
STURGIS*       SUNNY     57  28  33 NE10G21   30.14S
THREE RIVERS*  FAIR      58  32  36 NE13      30.15F

$$
OHZ001>008-015>018-024>025-222000-
NORTHWEST OHIO

CITY           SKY/WX    TMP DP  RH WIND       PRES   REMARKS
WAUSEON*       FAIR      57  32  38 NE12G20   30.14S
DEFIANCE       PTSUNNY   55  36  48 NE10G18   30.14F
FINDLAY        CLOUDY    52  32  46 NE15      30.12F
TOLEDO EXPRESS PTSUNNY   56  31  38 NE14      30.13F
TOLEDO METCALF CLOUDY    54  33  45 NE14G21   30.15F
LIMA           CLOUDY    51  36  56 NE16G23   30.11F

$$
AND FOR LAKE MICHIGAN COASTAL AND OPEN LAKE BUOY OBSERVATIONS

STATION/POSITION TEMP    WIND        PRES    VSBY  WAVE
                 AIR SEA DIR/SP/G                  HT/PER
                 (F)     (DEG/KT/KT) (MB)    (MI)  (FT/S)
CALUMET HARBOR    46     340/ 14/ 19 1021.9F
MICHIGAN CITY     42      10/ 11/ 12   N/A
BURNS HARBOR      43      20/ 11/ 13 1023.0S
4 MI NW BRIDGMAN  44 49   20/ 14/ 16 1022.8          3/ 3

$$
&&



USA.gov is the U.S. government's official web portal to all federal, state and local government web resources and services.